772  
ASUS44 KMAF 260610  
RWRMAF  
MIDLAND AREA WEATHER ROUNDUP  
NATIONAL WEATHER SERVICE MIDLAND TX  
100 AM CDT TUE MAR 26 2019  
   
..IN SOUTHWEST TEXAS AND SOUTHEAST NEW MEXICO
 
 
 
CITY SKY/WX TMP DP RH WIND PRES REMARKS
 
ALPINE CLEAR 54 32 43 N3 30.32F  
ANDREWS FAIR 52 43 72 SE9 30.28S  
ARTESIA FAIR 55 32 41 S9 30.25  
BIG SPRING CLEAR 54 44 68 E10 30.30S  
CARLSBAD FAIR 56 33 42 S9 30.23R  
DRYDEN N/A 68 44 42 NE8 30.19S  
FORT STOCKTON PTCLDY 61 40 45 E8 30.24S  
GUAD PASS FAIR 57 29 34 NE30 30.29F  
HOBBS CLEAR 52 41 66 SE12 30.28S  
LAMESA NOT AVBL  
MARFA CLOUDY 54 34 46 N7 30.29S  
MIDLAND AIRPK N/A 57 46 66 E6 30.27F  
MIDLAND INTL CLEAR 57 45 64 E13 30.27S  
ODESSA N/A 56 43 61 E12 30.27S  
PECOS CLEAR 57 38 49 E9 30.22S  
PRESIDIO FAIR 72 47 41 NE13G20 30.15S  
SEMINOLE CLEAR 51 42 71 SE7 30.32S  
SNYDER CLEAR 53 44 71 E13 30.30S  
WINK CLEAR 59 42 53 E10 30.22S  

   
..OTHER STATIONS IN TEXAS
 
 
 
CITY SKY/WX TMP DP RH WIND PRES REMARKS
 
ABILENE CLEAR 54 46 74 E8 30.31R  
AMARILLO CLEAR 46 42 86 SE10 30.30R  
AUSTIN PTCLDY 63 48 58 NE12 30.22S  
BROWNSVILLE CLOUDY 71 70 96 E3 30.15R  
CORPUS CHRISTI FOG 64 64 100 SE5 30.14F VSB 1/4  
DALLAS FTW CLEAR 57 47 69 N14 30.27R  
DEL RIO MOCLDY 69 66 90 E5 30.16F  
EL PASO MOCLDY 65 26 23 CALM 30.18S  
HOUSTON INT PTCLDY 63 51 65 VRB3 30.18F  
LUBBOCK CLEAR 51 43 74 SE14 30.27F  
SAN ANGELO PTCLDY 56 46 69 NE10 30.27R  
SAN ANTONIO PTCLDY 63 46 54 NE7 30.21S  
WACO CLEAR 54 46 74 N3 30.26R  
WICHITA FALLS CLEAR 41 36 82 SE6 30.33F WCI 37  

   
..OTHER LOCATIONS IN NEW MEXICO
 
 
 
CITY SKY/WX TMP DP RH WIND PRES REMARKS
 
ALAMOGORDO FAIR 54 14 20 NW7 30.22  
ALBUQUERQUE FAIR 53 19 26 NE6 30.27S  
CANNON AFB CLEAR 48 39 71 SE7 30.29R  
CLOVIS N/A 46 39 76 S9 30.29R  
HOLLOMAN AFB FAIR 52 17 25 N6 30.23S  
ROSWELL FAIR 50 25 37 SW5 30.23S  
RUIDOSO FAIR 48 16 27 S6 30.37  
SANTA FE FAIR 40 19 43 N7 30.30S WCI 35  
TRUTH OR CONSE FAIR 54 5 14 NW9 30.21F  
TUCUMCARI FAIR 53 36 52 SW9 30.22R  

 
 
 
CLICK HERE TO GO TO PREVIOUS BULLETINS.

The Nexlab TX Page
The Nexlab NM Page Main Text Page